Tracking 19146 objects as of 23-Apr-2018
HD Live streaming from Space Station
objects crossing your sky now

LEMUR 2 ANUBHAVTHAKUR

Track LEMUR 2 ANUBHAVTHAKUR now!
10-day predictions
LEMUR 2 ANUBHAVTHAKUR is classified as:


NORAD ID: 41873
Int'l Code: 2016-062E
Perigee: 504.6 km
Apogee: 507.9 km
Inclination: 51.6 °
Period: 94.6 minutes
Semi major axis: 6877 km
RCS: Unknown
Launch date: October 17, 2016
Source: (USA)
Launch site: WALLOPS ISLAND (WLPIS)
aabbcc
Your satellite tracking list
Your tracking list is empty




NASA's NSSDC Master Catalog

Two Line Element Set (TLE):
1 41873U 16062E   18112.43765475  .00000722  00000-0  45221-4 0  9991
2 41873  51.6260  59.2373 0002407 229.1686 130.9082 15.22225074 78010
Source of the keplerian elements: AFSPC